Location: Newark
(51.4703°N, 6.8522°E)
Time: 00:17:07
(UTC+00:00)

ISS - Visible Passes

Search period start: 19 January 2020 00:00
Search period end: 29 January 2020 00:00
Orbit: 415 x 421 km, 51.6° (Epoch: 19 January)

Date Brightness Start Highest point End Pass type
(mag) Time Alt. Az. Time Alt. Az. Time Alt. Az.
21 Jan -1.5 18:12:44 10° S 18:14:00 16° S 18:14:00 16° S visible
22 Jan -1.5 17:25:42 10° SSE 17:27:22 13° SE 17:28:10 12° ESE visible
22 Jan -1.0 19:00:17 10° SW 19:01:07 16° SW 19:01:07 16° SW visible
23 Jan -2.7 18:12:28 10° SW 18:15:12 35° S 18:15:12 35° S visible
24 Jan -2.3 17:24:48 10° SSW 17:27:40 26° SSE 17:29:14 18° ESE visible
24 Jan -1.4 19:00:46 10° WSW 19:02:10 23° WSW 19:02:10 23° WSW visible
25 Jan -3.7 18:12:46 10° WSW 18:16:06 62° SSE 18:16:08 62° SSE visible
26 Jan -3.2 17:24:49 10° SW 17:28:05 48° SSE 17:30:04 20° E visible
26 Jan -1.5 19:01:23 10° W 19:03:00 26° W 19:03:00 26° W visible
27 Jan -3.9 18:13:17 10° W 18:16:40 87° S 18:16:54 76° E visible
28 Jan -3.7 17:25:12 10° WSW 17:28:34 76° SSE 17:30:46 20° E visible
28 Jan -1.6 19:01:59 10° W 19:03:42 28° W 19:03:42 28° W visible
